User: anonymous   Login
Location: The Saddle
(36.8333°N, 80.3417°W)
Time: 12:32:48
(UTC-04:00)
Language:

ZACube-1 - Orbit

View from above orbital plane
View from above orbital plane
View from above satellite
View from above satellite

Ground track
Ground track

The orbit data is extracted from the following two-line orbital elements,

1 39417U 13066B   24196.53029750  .00007235  00000-0  74474-3 0  9999
2 39417  97.7345 151.8913 0052085  70.9167 289.7681 14.89563592575650
Epoch (UTC): 14 July 2024 12:43:37
Eccentricity: 0.0052085
inclination: 97.7345°
perigee height: 563 km
apogee height: 635 km
right ascension of ascending node: 151.8913°
argument of perigee: 70.9167°
revolutions per day: 14.89563592
mean anomaly at epoch: 289.7681°
orbit number at epoch: 57565

The dashed part of the orbit path shows where the satellite is in the earth's shadow,  

DLR